Home > Time Zones > World Clock > Weather > U.S.A. > Mesa > Past weeks

Flag for U.S.A. Weather past 2 weeks in Mesa, Arizona, U.S.A.

Now
64 °F

Clear.


Feels Like: 64 °F
Forecast: 65 / 92 °F
Wind: 6 mph from Southeast

Location: Williams Gateway Airport

Current Time: Oct 25, 2014 at 6:37:33 AM

Latest Report: Oct 25, 2014 at 5:47 AM


Visibility: 20 mi

Pressure: 30.03 "Hg

Humidity: 56%

Dew point: 48 °F

Location of MesaLocation

Historic Weather in Mesa — Graph

°F

Mesa temperature yesterday

Maximum temperature yesterday: 91 °F (at 2:51 PM)
Minimum temperature yesterday: 61 °F (at 4:15 AM)
Average temperature yesterday: 72 °F

Past Weeks' High & Low Weather Summary

 TemperatureHumidityPressure
High91 °F (Oct 24, 2:51 PM)100% (Oct 10, 4:47 AM)30.10 "Hg (Oct 10, 4:47 AM)
Low55 °F (Oct 13, 6:47 AM)12% (Oct 13, 3:47 PM)29.78 "Hg (Oct 18, 5:49 PM)
Average70 °F53%29.94 "Hg
* Reported Oct 10 4:15 AM — Oct 25 4:47 AM, Mesa, Weather by CustomWeather, © 2014

Note: Actual official high and low records may vary slightly from our data, if they occured in-between our weather recording intervals... More about our weather records

Advertising

Mesa weather history for previous 24 hours

 ConditionsComfort  
Time TempWeatherWind HumidityBarometerVisibility
4:47 AM
Oct 25
66 °FClear.7 mph52%30.02 "Hg20 mi
4:35 AM66 °FClear.6 mph52%30.02 "Hg10 mi
4:15 AM64 °FClear.9 mph56%30.02 "Hg10 mi
3:55 AM64 °FClear.7 mph56%30.02 "Hg10 mi
3:35 AM66 °FClear.7 mph52%30.02 "Hg10 mi
3:15 AM64 °FClear.7 mph56%30.02 "Hg10 mi
2:55 AM66 °FClear.8 mph52%30.02 "Hg10 mi
2:35 AM66 °FClear.8 mph56%30.03 "Hg10 mi
2:15 AM66 °FClear.6 mph56%30.03 "Hg10 mi
1:55 AM68 °FClear.5 mph53%30.03 "Hg10 mi
1:15 AM68 °FClear.7 mph53%30.03 "Hg10 mi
12:55 AM66 °FClear.No wind56%30.03 "Hg10 mi
12:35 AM66 °FClear.7 mph56%30.02 "Hg10 mi
12:15 AM68 °FClear.6 mph53%30.02 "Hg10 mi
11:47 PM
Oct 24
70 °FClear.7 mph53%30.02 "Hg20 mi
10:47 PM73 °FClear.8 mph41%30.02 "Hg20 mi
9:47 PM72 °FClear.6 mph50%30.02 "Hg20 mi
8:49 PM75 °FClear.No wind44%30.01 "Hg20 mi
7:47 PM82 °FClear.No wind32%30.00 "Hg20 mi
6:50 PM84 °FClear.No wind29%29.99 "Hg45 mi
5:47 PM88 °FClear.No wind25%29.98 "Hg20 mi
3:47 PM91 °FSunny.No wind23%29.99 "Hg45 mi
2:51 PM91 °FSunny.3 mph24%30.00 "Hg45 mi
1:47 PM90 °FSunny.No wind26%30.01 "Hg45 mi
12:47 PM88 °FSunny.5 mph29%30.03 "Hg45 mi
11:47 AM84 °FSunny.No wind33%30.07 "Hg45 mi
10:47 AM81 °FSunny.6 mph37%30.09 "Hg45 mi
9:45 AM75 °FSunny.6 mph41%30.10 "Hg45 mi
8:47 AM72 °FSunny.No wind50%30.09 "Hg45 mi
7:51 AM66 °FSunny.No wind56%30.08 "Hg45 mi
Weather by CustomWeather, © 2014

See weather overviewHow to use our weather pages